This is the latest recevied weather packets stored in our database for station/object SP5MRF. If no packets are shown the sender has not sent any weather packets the latest 1 day(s).
| Time | Temp. | Humidity | Pressure | Rain* | Wind** | Luminosity | Snow |
|---|---|---|---|---|---|---|---|
| 1778097475 | 17.22° C | 55% | 1001.5 hPa | 0 mm | - | - | - |
| 1778096995 | 17.22° C | 56% | 1001.5 hPa | 0 mm | - | - | - |
| 1778096036 | 18.33° C | 54% | 1001.5 hPa | 0 mm | - | - | - |
| 1778095075 | 18.89° C | 53% | 1001.6 hPa | 0 mm | - | - | - |
| 1778094595 | 19.44° C | 53% | 1001.4 hPa | 0 mm | - | - | - |
| 1778094115 | 20° C | 52% | 1001.3 hPa | 0 mm | - | - | - |
| 1778093636 | 20.56° C | 52% | 1001.2 hPa | 0 mm | - | - | - |
| 1778092675 | 20.56° C | 52% | 1001.3 hPa | 0 mm | - | - | - |
| 1778092195 | 21.11° C | 51% | 1000.9 hPa | 0 mm | - | - | - |
| 1778091715 | 21.11° C | 51% | 1001.2 hPa | 0 mm | - | - | - |
| 1778091235 | 21.67° C | 51% | 1001.1 hPa | 0 mm | - | - | - |
| 1778088835 | 22.22° C | 49% | 1000.8 hPa | 0 mm | - | - | - |
| 1778087875 | 22.22° C | 48% | 1000.8 hPa | 0 mm | - | - | - |
| 1778086919 | 22.78° C | 47% | 1000.6 hPa | 0 mm | - | - | - |
| 1778085955 | 23.33° C | 46% | 1000.5 hPa | 0 mm | - | - | - |
| 1778084515 | 23.33° C | 45% | 1000.7 hPa | 0 mm | - | - | - |
| 1778084035 | 23.89° C | 44% | 1000.6 hPa | 0 mm | - | - | - |
| 1778083555 | 24.44° C | 44% | 1000.7 hPa | 0 mm | - | - | - |
| 1778083075 | 24.44° C | 44% | 1000.6 hPa | 0 mm | - | - | - |
| 1778082595 | 25° C | 44% | 1000.7 hPa | 0 mm | - | - | - |
| 1778081637 | 24.44° C | 44% | 1000.7 hPa | 0 mm | - | - | - |
| 1778079235 | 25° C | 41% | 1000.9 hPa | 0 mm | - | - | - |
| 1778077318 | 25° C | 41% | 1000.8 hPa | 0 mm | - | - | - |
| 1778076355 | 25° C | 42% | 1000.9 hPa | 0 mm | - | - | - |
| 1778073955 | 25.56° C | 41% | 1000.7 hPa | 0 mm | - | - | - |
* Rain latest hour (hover to see other rain measurements)
** Current wind speed in m/s (hover to see current wind gust speed)